STARLINK-1917 (46767 NORAD) Tracking and Keplerian Element Data

This shows tracking and keplerian element data for the satellite.

Feedback or suggestion? Click here.




ElementValue
Catalog46767
NameSTARLINK-1917
Epoch Orbit178
Epoch Day330.91667824
Epoch Year2020
RAAN2.381
Inclination53.0553
Eccentricity0.0001292
Argument of Perigee61.688
Mean Anonmoly23.7769
Mean Motion15.4920511
Decay Rate-0.01081821
L11 46767U 20074AE 20330.91667824 -.01081821 00000-0 -21549-1 0 9999
L22 46767 53.0553 2.3810 0001292 61.6880 23.7769 15.49205110 1788

Live tracking and technical data element details for STARLINK-1917 (NORAD 46767). STARLINK-1917 can be tracked NOW for your location showing map with azimuth and elevation plus other details from your city location.

Track the satellite on the map from your city or location and see movement details for azimuth, elevation, latitude, longitude, range, height, and movement on the map or in text.







IsCatalogInMostPopularTable: catalog: 46767, numindb: 6
Update: records affected: 1



GetName: 46767 STARLINK-1917

Hit Count: updated at: Thu, 26 Nov 2020 17:55:34 GMT